User: anonymous
Location: Unspecified
(0.0000°N, 0.0000°E)
Time: 23:17:52
(UTC+02:00)
Language:

Landsat 4 - Orbit

View from above orbital plane
View from above orbital plane
View from above satellite
View from above satellite

Ground track
Ground track

The orbit data is extracted from the following two-line orbital elements,

1 13367U 82072A   14244.76651637  .00002385  00000-0  14858-3 0  7192
2 13367 098.2047 313.3114 0016053 066.1065 082.1286 15.10581132730775
Epoch (UTC): 01 September 2014 18:23:47
Eccentricity: 0.0016053
inclination: 98.2047°
perigee height: 523 km
apogee height: 545 km
right ascension of ascending node: 313.3114°
argument of perigee: 66.1065°
revolutions per day: 15.10581132
mean anomaly at epoch: 82.1286°
orbit number at epoch: 73077

The dashed part of the orbit path shows where the satellite is in the earth's shadow,  

DLR